Regional Weather Roundup
Issued by NWS State College, PA

Home | Current Version | Previous Version | Graphics & Text | Print | Product List | Glossary Off
Versions: 1 2 3 4 5 6 7 8 9 10 11 12 13 14 15 16 17 18 19 20 21 22 23 24 25 26 27 28 29 30 31 32 33 34 35 36 37 38 39 40 41 42 43 44 45 46 47 48 49 50

000
ASUS41 KCTP 281110
RWRCTP

REGIONAL WEATHER ROUNDUP
NATIONAL WEATHER SERVICE STATE COLLEGE PA
700 AM EDT SUN MAY 28 2017

Note: "fair" indicates few or no clouds below 12,000 feet with no
significant weather and/or obstructions to visibility.

* = STATION THAT DOES NOT REPORT PRECIPITATION /E.G. RAIN...SNOW...ETC/
    THUNDER OR FOG.

PAZ002>004-007>009-013>016-020>023-029>032-281200-
WESTERN PENNSYLVANIA

CITY           SKY/WX    TMP DP  RH WIND       PRES   REMARKS
ERIE           CLOUDY    55  51  86 NE3       29.83F
MEADVILLE      SUNNY     56  53  90 VRB5      29.84F
FRANKLIN*      SUNNY     52  48  87 E5        29.86S
NEW CASTLE     FAIR      54  54 100 CALM      29.83F FOG
BEAVER COUNTY  NOT AVBL
BUTLER*        MOSUNNY   55  54  94 NE3       29.83F
PITTSBURGH INT FOG       58  58 100 SE3       29.83S VSB 1/8
PITTSBURGH     PTSUNNY   58  56  93 E3        29.82F FOG
INDIANA*       MOSUNNY   57  57 100 E3        29.88F
LATROBE        SUNNY     55  55 100 CALM      29.85S FOG
WASHINGTON CO* CLOUDY    55  54  94 CALM      29.84F VSB<1/4
$$

PAZ004>006-010>012-017>019-024>028-033>037-041-042-045-046-049>053-281200-
CENTRAL PENNSYLVANIA

CITY           SKY/WX    TMP DP  RH WIND       PRES   REMARKS
BRADFORD       CLOUDY    50  50 100 SE3       29.89S FOG
DUBOIS         FOG       53  51  93 E7        29.87S VSB<1/4
CLEARFIELD     FOG       53  53 100 N7        29.89S VSB<1/4
JOHNSTOWN      CLOUDY    58  58 100 S3        29.88S FOG
ALTOONA        CLOUDY    60  60 100 CALM      29.89S FOG
STATE COLLEGE  FOG       55  54  94 CALM      29.89S VSB 1/8
WILLIAMSPORT   CLOUDY    60  57  89 E3        29.89R
SELINSGROVE    CLOUDY    54  54 100 CALM      29.91R FOG
FT INDIANTOWN  CLOUDY    54  54 100 CALM      29.91R
CAPITAL CITY   FOG       59  57  93 CALM      29.91R VSB<1/4
HARRISBURG     FOG       59  59 100 E3        29.90R VSB 1/16
YORK           FOG       57  57 100 CALM      29.91R VSB 1/2
$$

PAZ038>040-043-044-047-048-054-055-060>062-067>071-281200-
EASTERN PENNSYLVANIA

CITY           SKY/WX    TMP DP  RH WIND       PRES   REMARKS
SCRANTON       CLOUDY    60  55  83 E5        29.92R
MOUNT POCONO   CLOUDY    54  53  97 CALM      29.94R
ALLENTOWN      SUNNY     56  53  90 CALM      29.91S
QUAKERTOWN*    SUNNY     54  52  94 CALM      29.92S
READING        FOG       56  56 100 CALM      29.91R VSB 1/8
LANCASTER      FOG       59  59 100 CALM      29.91R VSB<1/4
COATESVILLE    FOG       57  57 100 CALM      29.93R VSB 3/4
POTTSTOWN      MOSUNNY   55  54  96 CALM      29.93R FOG
BLUE BELL      PTSUNNY   55  55 100 CALM      29.92S
DOYLESTOWN     SUNNY     55  55 100 CALM      29.92R
WILLOW GROVE   NOT AVBL
NORTH PHILA    SUNNY     61  58  90 CALM      29.93R
PHILADELPHIA   PTSUNNY   64  61  90 CALM      29.91R
$$




USA.gov is the U.S. government's official web portal to all federal, state and local government web resources and services.